Wetbulb
50.55 51.26 58.19 61.16 62.99 64.97 64.60 65.31 65.40 65.90 66.20 65.37 65.84 64.25 65.47 65.66 65.45 64.97 66.33 66.20 66.10 65.45 64.95 64.62 64.31 65.31 64.76 64.45 64.37 63.73 63.26 63.44 63.48 62.42 60.91 59.57 60.71 60.01 60.24 60.07 59.77 59.57 58.72
50.48 49.86 50.67 55.31 60.30 63.02 64.63 64.79 65.44 65.63 65.78 65.82 65.90 64.91 64.83 64.17 65.18 66.25 66.27 67.27 67.29 66.85 65.98 65.51 65.50 65.80 65.45 65.08 64.73 64.39 63.40 62.88 62.91 60.21 59.32 54.78 55.42 56.00 56.23 56.22 56.96 55.89 56.92
48.75 49.72 48.29 49.31 51.71 61.13 63.34 64.78 65.49 64.98 65.52 65.92 65.43 63.60 63.96 63.93 63.78 62.99 62.09 63.35 63.40 62.77 62.85 63.44 64.24 64.06 64.04 63.66 63.70 63.47 62.66 61.27 61.62 60.54 58.12 55.28 51.56 53.01 55.48 55.33 54.99 55.62 55.52
47.63 48.88 49.05 48.07 48.24 54.30 61.57 63.26 64.02 64.23 65.20 64.69 64.40 62.64 62.42 61.63 62.43 63.25 60.47 60.30 59.70 58.32 57.85 57.02 56.46 56.92 57.52 57.49 57.98 58.85 57.74 57.61 56.18 56.58 57.99 57.31 58.74 55.17 52.40 54.11 53.84 54.40 54.20
46.99 48.28 48.07 49.26 50.04 49.93 56.37 59.16 61.47 62.13 62.34 63.51 64.00 63.28 61.05 61.46 58.47 59.13 57.88 57.23 55.06 54.56 54.48 54.51 54.44 54.14 54.78 54.75 55.20 55.02 54.75 54.85 54.38 54.87 55.02 56.10 55.96 54.34 55.21 52.37 51.85 52.62 50.80
46.04 46.71 48.85 48.32 47.60 49.40 52.04 53.76 56.49 57.50 56.88 57.60 61.02 60.92 59.09 54.52 54.75 53.72 53.77 52.63 52.25 51.99 52.29 52.30 51.95 52.02 51.70 51.31 51.43 51.81 52.49 53.41 53.87 54.02 53.92 53.68 52.22 52.81 53.45 52.46 51.17 50.06 49.31
44.68 45.49 46.32 45.87 47.32 49.09 50.15 51.17 51.81 52.57 55.21 53.92 56.06 56.33 55.59 54.61 54.40 53.84 53.74 52.75 52.49 50.03 49.71 49.86 49.52 49.07 48.98 49.33 49.71 50.08 50.78 51.40 52.16 52.27 52.63 53.02 53.03 55.20 54.92 53.31 52.39 53.12 49.19
43.61 45.01 46.03 45.59 47.70 49.12 49.54 49.92 50.91 51.40 52.34 53.46 54.40 55.15 53.62 53.31 53.05 52.98 53.61 52.33 50.76 48.84 47.85 47.46 47.17 47.05 47.03 47.03 47.36 47.57 49.12 49.63 50.78 50.80 51.18 51.34 51.35 52.96 53.89 54.63 53.53 50.56 50.65
42.35 44.43 44.89 45.38 47.62 48.48 49.06 49.08 49.38 50.01 50.87 51.56 51.78 51.89 50.63 50.47 49.38 48.41 47.68 46.87 46.00 46.46 45.46 45.94 45.59 45.33 45.32 45.52 45.44 45.96 47.56 47.78 48.99 48.92 49.27 49.63 49.67 49.74 51.42 51.87 51.78 50.36 47.22
40.81 43.26 43.99 44.57 46.91 47.80 48.36 48.45 49.12 49.34 49.81 49.95 50.04 49.38 48.54 47.81 47.12 46.36 45.68 44.97 44.53 44.77 44.57 44.05 43.86 43.83 43.59 43.42 43.01 43.99 46.03 46.03 46.51 46.90 47.47 47.19 47.04 47.30 48.79 49.02 49.25 48.99 47.13
40.45 41.33 43.29 44.80 46.82 47.51 47.92 47.81 48.30 48.70 48.44 49.00 48.41 48.04 47.00 47.11 46.12 45.38 44.64 44.24 44.03 43.41 43.22 42.83 42.58 42.32 41.94 41.61 41.71 42.57 43.01 43.87 44.74 44.83 45.17 45.52 44.93 44.54 46.56 46.56 46.94 46.21 46.42
41.36 41.57 41.95 44.75 45.86 46.54 46.54 46.88 47.48 48.19 48.56 47.85 46.67 45.63 46.22 45.18 44.53 44.08 43.75 43.34 42.56 42.75 42.34 42.41 41.37 41.25 41.51 40.50 39.99 40.35 40.70 41.63 42.03 43.03 42.65 43.02 43.45 42.94 43.41 43.35 42.63 42.46 42.67
41.42 41.96 42.78 43.88 44.49 44.94 45.54 46.03 46.31 46.73 47.39 46.36 45.05 43.91 42.64 43.02 43.34 43.06 42.62 42.70 42.25 41.37 41.41 41.25 40.41 39.91 39.85 39.48 39.18 38.80 38.54 38.66 38.70 40.17 42.50 42.55 42.45 41.33 41.34 41.82 41.43 41.20 41.66
42.37 41.93 42.05 43.06 43.95 44.64 45.14 45.26 45.12 45.18 44.44 44.97 44.52 43.12 42.90 42.73 42.94 41.42 42.32 41.48 40.89 40.68 40.09 39.60 39.39 38.81 38.23 38.74 38.65 38.71 38.24 38.03 38.31 39.05 40.07 40.09 40.22 40.16 39.76 38.76 38.31 39.92 40.34
41.78 42.50 42.50 42.73 43.19 43.71 44.03 44.38 44.13 43.63 43.28 42.89 42.53 42.16 42.39 42.73 42.44 41.82 40.38 40.22 40.23 39.75 39.42 38.77 38.59 38.32 38.71 39.79 40.02 40.86 40.40 39.13 38.14 38.15 38.19 38.93 40.06 40.56 39.74 36.87 33.15 35.55 37.77
40.96 42.92 43.13 42.98 42.98 42.74 43.59 43.75 43.20 42.70 42.81 41.99 41.65 41.80 41.52 40.89 40.41 39.76 39.09 38.62 37.97 37.21 37.88 38.43 37.85 37.27 39.10 41.15 41.95 40.79 38.98 38.14 36.91 35.09 34.39 35.27 35.59 38.38 39.41 38.60 37.67 35.43 32.70
40.80 41.41 41.75 43.75 43.85 43.59 44.32 43.24 42.86 42.27 41.76 41.60 41.20 41.32 40.98 40.09 39.36 38.75 37.87 36.90 36.08 36.04 35.88 36.46 36.82 36.09 38.84 41.86 42.46 41.62 37.99 36.03 34.30 32.60 30.36 30.36 32.84 32.54 31.53 36.56 37.31 37.41 37.24
40.67 41.09 41.25 41.80 44.13 44.90 44.08 43.73 42.58 42.53 41.91 41.14 41.13 41.13 40.59 39.50 38.45 37.50 36.76 35.70 35.00 35.01 35.17 35.70 36.33 37.84 38.18 40.64 41.04 39.21 33.68 33.04 32.06 27.34 27.71 27.24 27.58 28.97 30.30 28.99 28.27 27.92 29.20
40.40 40.39 40.54 40.65 41.30 43.74 45.23 43.78 42.30 42.10 41.40 40.91 40.69 40.80 40.44 38.83 37.65 36.48 35.57 34.88 34.80 33.73 33.94 36.52 37.34 36.57 36.29 39.54 39.57 34.65 31.47 30.25 28.83 29.75 29.97 30.24 29.33 33.94 33.83 28.54 27.70 27.24 28.61
39.89 39.69 40.26 41.30 41.87 42.69 43.92 43.50 42.33 41.38 41.25 40.98 40.70 40.73 39.99 38.94 37.35 36.08 35.41 35.49 36.61 32.57 33.73 33.54 35.65 36.65 33.93 38.17 37.92 32.27 27.73 26.44 27.80 27.66 29.15 35.47 32.44 35.23 34.74 27.19 26.00 25.30 26.13
39.80 40.60 40.16 39.66 40.10 41.39 43.25 43.08 41.80 41.28 42.51 41.64 40.74 40.23 39.81 38.50 37.42 35.64 34.97 34.82 34.83 34.21 34.16 33.89 34.17 33.91 33.13 32.84 37.22 35.80 28.08 27.24 26.86 27.40 27.51 30.09 35.82 35.34 34.46 30.95 26.17 26.76 28.05
39.53 40.40 39.13 39.09 39.81 40.65 42.96 41.93 41.12 41.70 42.28 40.84 40.69 39.64 38.58 39.00 37.24 35.47 34.02 34.90 35.30 34.29 33.76 33.28 32.66 32.55 32.45 35.20 36.84 37.16 34.60 31.92 26.85 26.19 26.69 28.13 34.73 34.63 34.85 32.40 31.76 33.88 31.48
39.06 39.99 39.08 39.26 39.40 40.45 41.73 40.72 41.09 42.02 41.52 40.93 39.56 38.66 38.30 37.90 36.73 34.92 33.52 34.67 34.51 33.73 33.07 32.46 31.65 30.92 31.16 28.72 36.86 37.61 37.10 35.76 27.97 27.93 29.43 31.52 34.17 34.12 32.72 33.59 32.83 33.08 27.32
38.61 39.05 38.22 37.81 37.97 39.50 41.07 42.00 41.36 41.40 40.95 39.90 38.69 38.16 37.63 36.77 36.26 35.96 35.45 34.73 33.69 33.21 33.01 32.12 31.22 30.79 29.79 27.65 28.35 31.42 32.28 35.64 33.18 31.59 29.40 31.73 32.38 31.85 29.22 28.98 29.16 27.14 26.78
38.97 39.11 38.62 39.35 38.65 38.26 39.60 40.19 40.03 40.08 39.10 38.46 37.80 37.09 36.97 37.03 35.68 35.63 35.43 34.89 35.24 35.11 33.69 33.17 32.51 30.52 29.38 28.03 30.91 30.83 30.73 30.67 32.71 29.13 27.18 27.56 26.49 25.58 25.29 24.76 24.69 24.33 25.26
40.35 39.14 38.68 39.01 39.36 39.50 39.66 40.16 40.22 39.56 38.72 37.60 37.74 37.40 36.81 37.14 36.24 35.38 34.76 38.24 37.68 38.03 38.41 37.78 34.30 31.93 35.01 35.13 35.57 35.70 35.84 36.68 36.76 30.81 25.99 25.06 25.61 25.37 24.96 24.37 24.16 23.70 25.04
MSLP
1013.38 1013.26 1013.10 1013.38 1013.88 1013.83 1013.95 1014.30 1014.50 1014.54 1015.14 1015.95 1016.26 1017.03 1016.88 1016.82 1017.08 1017.10 1017.09 1017.23 1017.42 1017.81 1018.19 1018.48 1018.79 1018.85 1019.16 1019.35 1019.56 1019.78 1019.91 1019.94 1020.02 1020.08 1019.93 1019.79 1019.46 1019.29 1019.21 1019.08 1018.96 1018.85 1019.06
1013.30 1013.32 1013.48 1013.39 1013.37 1013.44 1013.52 1013.88 1014.08 1014.50 1014.92 1015.33 1015.70 1016.05 1016.39 1016.62 1016.77 1016.84 1016.94 1017.04 1017.35 1017.63 1017.93 1018.35 1018.76 1018.88 1019.13 1019.47 1019.73 1019.79 1019.91 1019.96 1019.89 1020.08 1020.17 1020.02 1019.94 1019.55 1019.41 1019.28 1019.04 1019.22 1019.16
1013.52 1013.27 1013.46 1013.45 1013.33 1013.28 1013.16 1013.47 1013.71 1014.08 1014.31 1014.83 1015.40 1015.72 1016.09 1016.51 1017.00 1017.29 1017.33 1017.45 1017.51 1017.80 1018.09 1018.53 1018.70 1019.01 1019.01 1019.46 1019.71 1019.94 1020.09 1020.09 1019.90 1020.03 1020.30 1020.32 1020.38 1020.23 1019.69 1019.68 1019.57 1019.64 1019.68
1013.39 1013.25 1013.26 1013.50 1013.66 1013.06 1012.90 1013.14 1013.51 1013.95 1013.97 1014.57 1014.91 1015.38 1015.43 1016.20 1016.57 1017.08 1017.66 1018.23 1018.38 1017.99 1017.74 1018.38 1018.88 1019.27 1019.41 1019.70 1019.92 1020.07 1020.22 1020.41 1020.45 1020.36 1020.25 1020.33 1020.45 1020.52 1020.29 1020.04 1020.12 1020.17 1020.28
1013.14 1013.10 1013.16 1013.06 1012.99 1013.18 1013.14 1013.06 1013.32 1013.57 1013.89 1014.36 1014.66 1014.75 1015.46 1015.64 1016.21 1016.84 1017.42 1018.47 1018.54 1018.61 1018.27 1018.70 1019.07 1019.46 1019.67 1019.87 1019.98 1020.13 1020.29 1020.48 1020.65 1020.57 1020.47 1020.39 1020.37 1020.50 1020.72 1020.54 1020.56 1020.84 1021.20
1012.52 1012.85 1012.60 1012.83 1013.11 1013.32 1013.65 1013.63 1013.56 1013.79 1014.14 1014.06 1014.59 1014.51 1014.98 1015.67 1016.44 1016.98 1017.58 1018.12 1018.63 1018.79 1018.64 1019.07 1019.56 1019.72 1019.94 1020.05 1020.19 1020.24 1020.30 1020.43 1020.46 1020.44 1020.52 1020.56 1020.52 1020.43 1020.54 1020.67 1020.66 1020.91 1021.66
1012.41 1012.62 1012.95 1013.02 1013.22 1013.72 1013.98 1014.21 1014.10 1014.13 1014.38 1014.34 1014.93 1015.10 1015.32 1015.77 1016.43 1017.23 1017.70 1018.04 1018.47 1018.83 1019.18 1019.31 1019.76 1019.94 1020.08 1020.23 1020.23 1020.24 1020.30 1020.31 1020.41 1020.35 1020.37 1020.36 1020.47 1020.39 1020.37 1020.45 1020.38 1020.57 1021.42
1012.26 1012.31 1012.43 1012.62 1012.83 1013.31 1013.81 1013.99 1014.20 1014.42 1014.58 1014.93 1015.23 1015.60 1015.57 1016.69 1016.53 1017.35 1018.23 1018.33 1018.60 1018.91 1019.34 1019.54 1019.86 1020.10 1020.23 1020.46 1020.59 1020.47 1020.44 1020.34 1020.28 1020.32 1020.25 1020.18 1020.30 1020.33 1020.18 1020.06 1019.99 1020.37 1020.74
1012.09 1012.15 1012.14 1012.46 1012.95 1013.31 1013.60 1013.74 1014.03 1014.35 1014.71 1015.19 1015.26 1015.86 1015.94 1016.51 1017.14 1017.71 1018.27 1018.76 1019.13 1019.42 1019.84 1020.07 1020.36 1020.44 1020.52 1020.69 1020.72 1020.78 1020.60 1020.50 1020.39 1020.34 1020.25 1020.18 1020.21 1020.24 1020.21 1020.10 1020.05 1020.12 1020.73
1012.32 1012.37 1012.44 1012.61 1013.04 1013.40 1013.62 1014.07 1014.31 1014.58 1014.88 1015.28 1015.62 1015.64 1016.51 1016.86 1017.48 1018.06 1018.84 1019.18 1019.45 1019.84 1020.32 1020.72 1020.69 1020.66 1020.75 1020.96 1020.88 1020.82 1020.73 1020.68 1020.62 1020.53 1020.42 1020.26 1020.30 1020.40 1020.20 1020.28 1020.14 1020.09 1020.26
1012.62 1012.90 1012.88 1013.01 1013.45 1013.87 1014.07 1014.21 1014.38 1014.56 1015.04 1015.39 1015.63 1015.43 1016.77 1016.79 1017.43 1018.39 1019.03 1019.38 1019.30 1019.53 1020.21 1020.61 1020.70 1020.74 1021.10 1020.97 1020.87 1020.72 1020.82 1020.78 1020.76 1020.75 1020.62 1020.57 1020.53 1020.56 1020.57 1020.34 1020.32 1020.52 1020.58
1013.19 1013.17 1013.13 1013.44 1013.71 1014.03 1014.21 1014.41 1014.65 1014.88 1015.18 1015.49 1015.85 1016.88 1015.74 1017.31 1017.89 1018.01 1018.73 1019.53 1019.73 1019.78 1020.44 1020.47 1020.66 1020.90 1021.04 1021.30 1021.20 1020.99 1020.86 1020.86 1020.83 1020.68 1020.76 1020.78 1020.84 1020.76 1020.83 1020.75 1020.82 1020.89 1020.87
1013.19 1013.51 1013.71 1013.79 1013.90 1014.08 1014.40 1014.71 1014.96 1015.21 1015.48 1015.90 1016.27 1016.97 1017.97 1017.91 1017.93 1017.41 1018.50 1019.42 1019.88 1019.70 1020.42 1020.91 1020.86 1021.06 1021.17 1021.16 1021.52 1021.43 1021.14 1020.88 1021.00 1020.73 1020.91 1020.93 1021.06 1021.05 1021.15 1021.05 1021.19 1021.37 1021.06
1013.51 1013.64 1013.90 1014.07 1014.01 1014.14 1014.38 1014.63 1014.97 1015.29 1015.71 1016.10 1016.65 1017.22 1017.80 1018.57 1018.75 1019.01 1018.56 1019.38 1019.82 1020.05 1020.54 1021.12 1021.22 1021.04 1021.15 1021.24 1021.50 1021.47 1021.43 1021.25 1021.13 1021.23 1021.17 1021.19 1021.21 1021.34 1021.43 1021.64 1021.39 1021.65 1021.58
1013.38 1013.44 1013.55 1013.65 1013.66 1013.87 1014.16 1014.32 1014.66 1015.14 1015.61 1016.13 1016.66 1017.13 1017.67 1018.33 1018.96 1019.06 1019.13 1019.40 1020.05 1020.44 1020.56 1020.98 1021.33 1020.91 1021.12 1021.39 1021.50 1021.34 1021.40 1021.46 1021.55 1021.57 1021.47 1021.43 1021.41 1021.49 1021.58 1021.80 1021.84 1021.94 1022.02
1013.30 1013.46 1013.57 1013.64 1013.71 1013.58 1013.78 1014.12 1014.46 1014.88 1015.43 1016.01 1016.56 1017.10 1017.72 1018.40 1018.79 1019.21 1019.35 1019.76 1020.21 1020.52 1020.71 1021.18 1021.13 1021.10 1020.99 1021.35 1021.57 1021.49 1021.47 1021.55 1021.90 1021.79 1021.83 1021.69 1021.85 1021.68 1021.76 1021.81 1021.88 1021.90 1022.19
1013.25 1013.25 1013.29 1013.13 1013.04 1013.10 1013.35 1013.85 1014.10 1014.62 1015.23 1015.71 1016.30 1016.96 1017.54 1018.28 1019.00 1019.13 1019.33 1019.82 1020.40 1020.86 1021.03 1021.01 1021.03 1021.03 1021.41 1021.58 1021.26 1021.40 1021.63 1021.66 1021.86 1022.21 1022.28 1022.02 1022.34 1022.59 1022.35 1022.22 1022.29 1022.05 1022.23
1013.29 1013.27 1013.13 1012.84 1012.47 1012.36 1012.88 1013.20 1013.82 1014.37 1015.06 1015.64 1016.14 1016.68 1017.34 1018.05 1018.65 1019.14 1019.64 1020.20 1020.54 1020.76 1020.89 1021.06 1021.22 1021.27 1021.32 1021.16 1021.38 1021.58 1021.64 1021.82 1022.07 1022.21 1022.50 1022.51 1022.18 1022.56 1022.54 1022.94 1023.01 1022.90 1023.05
1013.17 1013.06 1012.91 1012.64 1012.12 1012.00 1011.89 1012.68 1013.52 1014.05 1014.79 1015.41 1015.94 1016.39 1016.92 1017.67 1018.41 1019.10 1019.64 1020.03 1020.35 1020.70 1020.85 1020.93 1021.01 1021.05 1021.09 1021.12 1021.38 1021.66 1021.80 1022.21 1022.25 1022.31 1022.51 1022.51 1022.35 1022.28 1022.38 1022.85 1023.29 1023.38 1023.33
1013.05 1012.88 1012.52 1012.15 1011.80 1011.46 1011.66 1012.19 1012.90 1013.65 1014.12 1014.57 1015.29 1016.02 1016.64 1017.34 1018.06 1018.74 1019.38 1019.74 1020.01 1020.54 1020.89 1020.90 1020.93 1020.97 1021.15 1021.18 1021.30 1021.66 1022.04 1022.16 1022.36 1022.49 1022.45 1022.16 1022.22 1022.22 1022.38 1022.80 1023.14 1023.51 1023.57
1012.71 1012.56 1012.38 1012.14 1011.70 1011.34 1011.42 1011.77 1012.31 1012.83 1013.16 1014.07 1014.83 1015.69 1016.39 1016.93 1017.78 1018.54 1019.11 1019.56 1019.81 1020.24 1020.65 1020.82 1020.86 1020.92 1021.01 1021.09 1021.13 1021.48 1021.78 1021.94 1022.32 1022.53 1022.41 1022.07 1021.89 1022.05 1022.36 1022.90 1023.06 1023.23 1023.45
1012.50 1012.37 1012.30 1012.05 1011.52 1011.05 1011.07 1011.48 1011.75 1012.18 1012.95 1013.88 1014.78 1015.68 1016.24 1016.79 1017.57 1018.28 1018.85 1019.38 1019.54 1019.83 1020.28 1020.58 1020.72 1020.78 1020.80 1020.90 1020.94 1021.08 1021.39 1021.59 1021.87 1022.09 1022.07 1021.98 1021.84 1022.02 1022.27 1022.65 1022.90 1022.89 1023.34
1012.26 1012.22 1012.19 1012.13 1011.82 1011.34 1011.26 1011.68 1012.03 1012.35 1013.04 1013.92 1014.74 1015.49 1016.20 1016.79 1017.22 1017.91 1018.57 1018.98 1019.26 1019.48 1019.80 1020.11 1020.30 1020.44 1020.52 1020.68 1020.67 1020.72 1020.95 1021.23 1021.57 1021.55 1021.65 1021.78 1021.81 1022.04 1022.26 1022.49 1022.75 1022.87 1023.51
1012.10 1012.22 1012.32 1012.21 1012.03 1011.76 1011.61 1011.71 1012.15 1012.45 1013.04 1013.89 1014.66 1015.44 1016.09 1016.65 1017.14 1017.70 1018.07 1018.50 1018.82 1019.05 1019.23 1019.52 1019.78 1019.94 1020.11 1020.30 1020.33 1020.47 1020.58 1020.84 1021.15 1021.38 1021.47 1021.65 1021.81 1022.08 1022.39 1022.66 1022.66 1023.02 1023.48
1011.75 1011.96 1012.08 1012.21 1012.11 1012.00 1012.03 1012.26 1012.53 1012.93 1013.56 1014.20 1014.83 1015.41 1015.97 1016.53 1017.00 1017.36 1017.73 1018.06 1018.10 1018.36 1018.62 1018.78 1019.04 1019.32 1019.49 1019.50 1019.66 1020.02 1020.33 1020.47 1020.79 1021.30 1021.62 1021.89 1022.09 1022.30 1022.47 1022.64 1022.77 1023.01 1023.35
1011.46 1011.81 1011.93 1012.02 1012.09 1012.19 1012.14 1012.41 1012.71 1013.07 1013.66 1014.33 1014.87 1015.32 1015.80 1016.34 1016.79 1017.10 1017.51 1017.56 1017.78 1017.93 1018.07 1018.18 1018.40 1018.53 1018.58 1018.77 1018.95 1019.26 1019.58 1019.96 1020.36 1020.91 1021.32 1021.57 1021.80 1022.00 1022.15 1022.36 1022.52 1022.66 1022.85
Wind_Speed
4 3 8 7 5 6 7 8 8 8 7 3 4 3 4 3 2 4 6 6 5 5 5 4 3 3 4 3 4 2 3 3 2 2 3 3 5 6 4 4 3 2 4
5 5 5 6 9 8 8 7 9 7 7 6 5 4 3 2 2 2 3 4 5 5 5 4 4 3 3 3 1 1 1 1 2 2 2 3 5 3 3 3 1 4 3
8 7 6 8 6 8 10 10 10 9 8 9 5 3 3 3 3 2 3 2 7 6 6 4 3 1 2 2 1 1 3 3 1 1 3 2 3 2 2 3 3 3 3
6 7 8 6 8 9 6 7 8 9 8 7 7 5 4 4 2 4 4 2 3 3 7 5 5 3 2 3 1 1 1 1 3 2 2 1 2 3 3 2 2 3 4
9 10 10 10 9 6 7 7 7 7 6 7 8 7 5 4 3 4 9 4 4 2 6 5 5 4 3 3 3 2 1 1 2 2 1 1 2 4 4 4 2 4 4
9 9 9 8 6 2 4 5 7 5 4 4 5 7 8 7 6 5 6 5 3 3 6 6 5 4 3 2 1 1 1 2 3 2 3 3 3 2 3 3 4 3 3
8 8 8 8 8 8 6 3 4 6 6 5 4 4 6 6 6 5 4 6 4 2 4 4 3 2 2 1 0 1 2 2 3 3 3 1 1 2 3 4 4 3 2
8 9 9 8 9 10 9 8 7 5 6 6 5 3 6 1 3 4 4 3 3 4 4 4 3 3 2 1 2 1 2 1 3 4 3 1 2 2 2 2 2 2 3
4 6 7 8 8 8 9 9 8 6 6 6 6 5 6 8 5 6 5 4 5 3 4 3 2 2 2 2 2 2 3 2 1 2 2 1 1 1 1 1 1 3 3
4 6 2 5 4 4 5 6 6 7 6 7 5 7 10 7 7 6 5 5 5 4 4 3 2 3 2 2 2 2 2 2 2 2 3 0 0 0 1 1 1 1 2
1 3 3 2 5 4 5 6 6 8 7 6 6 10 6 9 10 7 6 5 6 6 5 4 2 3 1 2 2 1 3 3 4 2 1 1 0 0 1 1 1 1 2
4 2 0 3 5 6 5 6 5 7 6 6 6 2 11 8 6 8 9 6 4 4 3 3 4 3 2 2 2 2 1 2 1 2 3 1 1 2 2 2 2 1 1
2 0 1 3 5 5 5 6 6 6 6 6 6 6 3 1 6 10 8 5 5 6 4 3 4 3 2 2 2 1 2 3 2 2 2 3 3 2 1 1 2 1 2
5 4 4 5 5 6 6 7 7 6 7 7 7 6 6 4 3 2 7 7 5 5 5 4 4 4 3 1 2 3 3 3 4 3 3 3 3 2 2 2 3 0 2
7 8 8 8 7 7 6 6 6 7 7 7 7 7 7 6 5 5 5 6 5 5 5 5 3 3 3 2 3 3 4 3 3 3 4 4 5 4 3 1 0 0 1
7 7 7 7 7 8 8 7 7 8 7 7 7 6 7 6 6 6 6 6 5 4 4 5 4 3 1 3 6 4 3 4 4 4 4 4 5 5 6 5 4 4 4
7 7 7 8 8 9 9 9 8 7 8 8 7 7 7 7 6 6 6 5 5 4 4 4 4 3 3 5 6 7 3 4 4 4 3 3 2 4 4 7 10 9 8
6 7 7 7 8 7 8 7 8 10 9 8 8 8 8 8 6 6 6 5 4 4 3 4 5 4 3 5 4 6 4 3 3 4 3 3 4 3 5 4 5 5 4
7 7 6 7 6 8 11 10 9 10 9 8 8 8 9 8 8 7 7 5 4 3 4 4 5 5 3 7 7 5 4 4 4 4 4 5 4 5 7 5 4 3 3
6 7 7 7 7 7 8 11 11 10 12 10 9 8 8 8 8 7 7 4 3 4 3 3 4 7 5 9 9 7 3 4 3 2 3 8 5 6 5 4 4 4 3
7 6 6 6 7 6 8 11 11 13 10 8 8 7 8 8 8 7 4 5 4 4 4 4 4 4 5 5 11 11 4 4 3 3 3 3 8 6 5 5 4 4 5
5 4 3 5 6 3 7 8 12 7 9 8 8 8 7 6 7 8 5 5 5 5 5 4 3 3 4 10 11 12 10 9 5 5 4 4 7 7 7 5 6 6 6
5 3 3 3 5 4 5 6 5 8 8 8 7 6 6 6 6 7 6 4 4 4 5 4 4 4 4 4 12 13 13 11 4 3 6 8 10 8 6 7 8 6 4
5 3 3 2 1 3 5 5 5 6 8 8 7 7 7 6 5 4 4 4 5 5 5 5 5 4 3 4 4 4 5 11 6 6 4 7 7 6 5 5 5 3 4
4 4 5 4 4 4 5 4 5 6 6 5 5 5 5 6 5 4 5 5 5 7 6 6 6 5 5 6 10 8 4 4 6 4 2 1 2 3 3 3 4 3 3
4 4 5 5 5 4 5 6 5 6 6 5 5 5 5 5 4 4 3 10 11 12 15 12 8 5 9 10 15 16 16 15 13 4 3 4 5 5 5 5 5 4 7
Wind_Direction
257 241 195 198 200 219 208 177 175 169 167 155 159 210 195 189 219 190 200 197 191 179 181 184 190 202 204 208 191 188 216 233 205 296 293 306 282 286 293 296 270 226 142
223 222 213 189 182 197 199 194 198 184 180 181 188 175 166 194 181 155 103 123 128 151 160 172 158 150 138 122 125 163 233 263 211 252 302 301 325 337 358 355 60 122 127
212 226 223 218 203 198 186 198 201 195 185 185 170 123 105 98 132 116 104 126 121 118 103 104 115 148 122 191 222 241 225 257 300 305 212 287 250 316 326 8 32 76 72
220 222 218 239 218 226 198 187 179 197 194 179 167 159 173 148 175 155 126 74 352 125 130 113 99 80 72 60 51 56 93 8 269 335 211 191 251 265 298 8 351 57 81
204 218 217 216 225 209 213 196 205 189 194 188 207 185 186 148 140 133 127 156 138 87 90 94 87 82 75 83 69 45 22 192 222 212 313 322 277 230 250 260 288 59 39
231 221 225 210 223 188 186 183 157 176 168 154 225 185 172 143 134 133 138 143 128 109 84 84 91 91 90 84 77 32 290 254 252 246 239 212 219 242 208 233 238 170 75
244 237 217 197 184 174 182 191 168 175 177 147 216 215 166 147 159 177 181 160 162 123 118 114 111 99 87 54 266 255 263 257 244 234 234 226 274 242 232 238 244 190 153
235 244 218 205 196 181 180 167 172 165 159 169 180 199 119 276 131 154 201 173 126 119 132 106 121 112 83 360 328 326 278 290 252 245 237 236 252 248 252 284 205 211 180
313 303 225 197 191 175 186 184 172 163 151 145 134 153 99 139 96 91 93 84 80 79 85 97 105 78 49 349 326 294 283 281 277 265 280 269 254 259 251 242 228 216 195
355 352 259 203 201 196 145 142 151 153 143 132 136 126 133 72 101 92 82 113 109 94 97 97 99 82 50 352 339 300 292 293 269 255 282 232 265 299 56 304 23 3 161
341 329 339 199 163 154 167 170 162 150 149 145 139 142 125 151 131 136 142 161 141 130 141 154 117 85 28 360 339 294 289 278 260 258 43 327 340 335 23 55 74 63 53
185 261 187 201 189 181 167 174 158 149 146 147 132 282 128 147 146 138 148 151 119 115 151 124 136 126 112 16 355 293 313 247 270 212 138 193 107 78 47 71 83 106 88
298 166 212 217 202 178 167 164 157 145 131 122 119 91 19 83 165 143 138 145 147 138 147 163 152 140 108 67 336 330 118 107 89 72 155 128 134 103 86 92 119 82 96
258 261 244 225 213 192 179 173 174 162 147 142 144 139 133 158 152 154 134 147 144 143 148 170 160 138 115 127 241 172 139 125 108 99 77 77 79 95 92 50 55 71 122
236 230 229 222 211 206 202 189 177 163 158 158 161 169 160 162 163 151 132 124 140 158 152 156 173 142 170 204 243 219 178 150 117 92 86 83 82 84 92 126 96 202 118
266 258 266 265 242 217 203 191 181 173 163 163 171 157 152 155 158 154 141 135 144 149 153 187 176 182 177 227 228 202 162 136 140 118 92 70 64 79 94 100 130 154 149
297 292 262 246 232 217 198 202 182 159 168 169 162 164 158 158 173 157 135 140 159 170 181 181 176 174 203 216 226 181 151 143 140 139 142 109 71 71 61 74 60 68 71
280 286 294 278 247 213 192 176 165 171 176 176 170 164 162 161 154 147 154 160 161 181 182 198 197 184 202 196 136 145 121 116 137 155 163 157 147 168 124 109 79 63 56
271 265 264 275 280 218 193 175 171 173 172 182 178 172 163 157 156 165 168 172 158 184 201 200 192 185 202 202 172 148 132 148 156 163 180 177 168 190 158 143 135 109 63
274 285 287 288 282 242 185 175 180 176 190 180 174 166 159 161 167 166 169 174 150 184 201 216 199 197 194 200 186 164 163 151 170 211 221 187 177 187 165 152 156 161 175
289 304 303 285 279 276 186 190 171 190 186 153 150 156 163 160 165 160 157 171 150 160 195 207 194 198 194 219 194 182 174 175 180 202 212 229 194 183 178 163 171 193 153
287 298 316 329 323 282 182 182 186 156 145 142 151 161 161 158 155 158 164 172 161 176 197 199 205 213 204 211 220 211 201 202 183 199 203 209 215 206 207 179 203 182 151
257 274 266 321 356 24 132 138 139 135 134 140 149 152 148 156 155 159 166 158 175 184 196 200 209 216 205 225 226 225 221 218 199 196 205 203 208 210 213 199 216 200 147
222 213 218 209 46 37 63 108 126 132 142 150 149 150 155 155 154 159 166 175 183 197 200 200 210 210 203 214 223 238 223 219 205 202 207 197 198 192 195 221 232 166 181
213 197 195 196 173 131 106 119 126 127 131 136 144 150 159 170 171 178 183 198 206 203 204 209 205 196 212 218 206 201 206 199 200 155 109 143 179 205 211 215 211 200 207
196 213 209 198 183 172 150 147 151 152 151 159 165 175 169 170 177 177 203 222 223 227 232 227 205 219 231 218 212 217 219 217 207 167 182 200 205 213 212 216 220 207 219